Location: Yellowknife
(62.4500°N, 114.3500°W)
Time: 07:02:03
(UTC-06:00)

Amateur Radio Satellites - All Passes

Search period start: 06 May 2016 06:32
Search period end: 07 May 2016 06:32
Location: Yellowknife, 62.4500°N, 114.3500°W

Satellite Date Start Highest point End Downlink Frequencies (MHz)
Time Altitude Azimuth
LilacSat-2 06 May 06:34:22 06:35:30 11° 80° (E) 06:36:38 437.200
ITAMSAT 1 06 May 06:34:32 06:39:15 36° 308° (NW) 06:43:57 435.822/435.867
GONETS M04 06 May 06:36:11 06:42:33 21° 353° (N) 06:48:54
CUBESAT XI-V 06 May 06:38:08 06:42:33 43° 263° (W) 06:47:01 437.345
YUBILEINY 06 May 06:46:12 06:54:54 76° 262° (W) 07:03:36 435.215
Oscar 19 06 May 06:47:39 06:50:41 16° 330° (NNW) 06:53:44 437.125/150
CUTE-I 06 May 06:50:45 06:54:43 21° 85° (E) 06:58:39 437.470
HORYU 2 06 May 06:56:27 07:00:55 79° 108° (ESE) 07:05:21 437.375
BRITE-PL 06 May 07:04:49 07:09:47 30° 88° (E) 07:14:42 437.365/2234.400
RS-15 06 May 07:08:39 07:20:04 51° 238° (WSW) 07:31:41 29.354- 29.394
SO-50 06 May 07:12:13 07:15:27 18° 119° (ESE) 07:18:41 436.795
Gurwin Techsat 1B 06 May 07:12:20 07:15:54 19° 326° (NNW) 07:19:29 435.225
JAS-2 06 May 07:19:58 07:25:12 21° 342° (NNW) 07:30:38 435.910
NOAA 15 06 May 07:20:18 07:25:17 38° 96° (E) 07:30:15 137.62
DOVE 4 06 May 07:34:39 07:38:01 17° 79° (E) 07:41:16 437.250
AO-7 06 May 07:35:19 07:43:29 62° 310° (NW) 07:51:39 29.400- 29.500
NOAA 18 06 May 07:35:29 07:40:41 42° 98° (E) 07:45:51 137.9125
Cubesat XI-IV 06 May 07:36:04 07:41:00 37° 95° (E) 07:45:55 437.490
Cosmos 2491 06 May 07:43:55 07:52:43 74° 99° (E) 08:01:34 435.465 / 435.565
STRAND 1 06 May 07:49:49 07:54:54 67° 255° (WSW) 08:00:01 437.568
Cosmos 2504 06 May 07:50:32 07:58:01 89° 257° (WSW) 08:06:02 435.465 / 435.565
PRISM 06 May 07:55:32 07:59:31 50° 62° (ENE) 08:03:33 437.425
Cosmos 2499 06 May 07:55:56 08:00:25 17° 6° (N) 08:05:05 435.465 / 435.565
HO-68 06 May 07:57:02 08:01:12 16° 75° (ENE) 08:05:19 435.675
GOMX 1 06 May 07:57:09 08:02:14 37° 92° (E) 08:07:09 467.674
UNISAT 6 06 May 07:59:29 08:01:30 13° 35° (NE) 08:03:31 437.425
LilacSat-2 06 May 08:06:56 08:10:43 55° 102° (ESE) 08:14:27 437.200
ITAMSAT 1 06 May 08:14:34 08:17:33 16° 331° (NNW) 08:20:32 435.822/435.867
TIGRISAT 06 May 08:15:01 08:17:30 15° 38° (NE) 08:19:56 435.000
CANX-2 06 May 08:19:09 08:21:05 13° 80° (E) 08:23:02 2200.000
CUBESAT XI-V 06 May 08:20:32 08:21:14 10° 285° (WNW) 08:21:57 437.345
Oscar 19 06 May 08:27:49 08:28:11 10° 354° (N) 08:28:33 437.125/150
CUTE-I 06 May 08:30:20 08:35:41 75° 107° (ESE) 08:41:01 437.470
HORYU 2 06 May 08:33:24 08:37:10 28° 309° (NW) 08:40:55 437.375
GONETS M04 06 May 08:36:16 08:43:17 25° 25° (NNE) 08:50:14
ANTELSAT 06 May 08:39:56 08:43:08 19° 44° (NE) 08:46:17 437.575/2403.000
BRITE-PL 06 May 08:43:07 08:48:52 85° 290° (WNW) 08:54:34 437.365/2234.400
M-CUBED/EXP-1 PRIME 06 May 08:43:11 08:46:41 26° 100° (E) 08:49:55 437.505
YUBILEINY 06 May 08:43:30 08:50:30 28° 287° (WNW) 08:57:29 435.215
SO-50 06 May 08:50:20 08:55:06 52° 140° (SE) 08:59:50 436.795
CUTE 1.7 + AOD 2 06 May 08:50:29 08:53:35 19° 87° (E) 08:56:39 437.475
Gurwin Techsat 1B 06 May 08:52:45 08:54:06 11° 350° (N) 08:55:27 435.225
AUBIESAT-1 06 May 08:58:22 09:01:56 29° 102° (ESE) 09:05:15 437.475
NOAA 15 06 May 09:00:07 09:05:23 62° 298° (WNW) 09:10:38 137.62
JAS-2 06 May 09:03:12 09:07:57 19° 7° (N) 09:12:56 435.910
ISS 06 May 09:04:36 09:05:32 11° 165° (SSE) 09:06:28 145.825
COMPASS 1 06 May 09:06:58 09:09:41 17° 85° (E) 09:12:24 437.405
SEEDS 06 May 09:10:32 09:13:49 22° 88° (E) 09:17:06 437.485
DOVE 4 06 May 09:11:35 09:16:48 63° 102° (ESE) 09:21:45 437.250
AIST 1 06 May 09:12:06 09:14:25 14° 41° (NE) 09:16:43
Cubesat XI-IV 06 May 09:16:10 09:21:27 64° 297° (WNW) 09:26:43 437.490
NOAA 18 06 May 09:16:14 09:21:37 59° 300° (WNW) 09:26:58 137.9125
DUCHIFAT 1 06 May 09:20:10 09:22:13 13° 37° (NE) 09:24:15 145.980
RS-15 06 May 09:21:38 09:29:34 21° 266° (W) 09:37:34 29.354- 29.394
QB50P2 06 May 09:25:35 09:28:02 15° 40° (NE) 09:30:29 145.880/145.840
CINEMA 3 06 May 09:26:35 09:31:00 37° 95° (E) 09:35:11 145.822/145.860
POLYITAN 1 06 May 09:27:45 09:30:14 15° 40° (NE) 09:32:43 437.675
AO-7 06 May 09:27:58 09:35:08 34° 336° (NNW) 09:42:20 29.400- 29.500
POPSAT HIP 1 06 May 09:29:15 09:31:44 15° 40° (NE) 09:34:14 437.405
PRISM 06 May 09:31:16 09:35:02 34° 264° (W) 09:38:51 437.425
STRAND 1 06 May 09:31:39 09:35:04 18° 277° (W) 09:38:31 437.568
QB50P1 06 May 09:31:58 09:34:33 16° 41° (NE) 09:37:07 145.935-145.965
UWE-3 06 May 09:32:14 09:34:42 15° 82° (E) 09:37:08 435.000/436.395/437.385
UNISAT 6 06 May 09:33:04 09:37:12 35° 57° (ENE) 09:41:17 437.425
AAUSAT CUBESAT 2 06 May 09:33:36 09:36:52 22° 89° (E) 09:40:08 437.432
GOMX 1 06 May 09:35:13 09:40:41 66° 295° (WNW) 09:45:59 467.674
LilacSat-2 06 May 09:41:31 09:44:53 29° 303° (WNW) 09:48:13 437.200
Cosmos 2491 06 May 09:41:48 09:50:18 48° 305° (NW) 09:58:50 435.465 / 435.565
HO-68 06 May 09:43:54 09:50:51 49° 99° (E) 09:57:45 435.675
Cosmos 2504 06 May 09:44:20 09:50:43 32° 280° (W) 09:57:27 435.465 / 435.565
BUGSAT 1 06 May 09:45:38 09:47:35 13° 36° (NE) 09:49:32 437.445
CUBEBUG 2 06 May 09:47:31 09:51:05 24° 89° (E) 09:54:33 437.445
TIGRISAT 06 May 09:48:59 09:53:18 42° 60° (ENE) 09:57:31 435.000
Cosmos 2499 06 May 09:50:43 09:56:47 26° 37° (NE) 10:03:11 435.465 / 435.565
CANX-2 06 May 09:53:43 09:57:54 57° 102° (ESE) 10:02:05 2200.000
ZACube-1 06 May 09:53:49 09:56:29 16° 84° (E) 09:59:06 437.345
ITAMSAT 1 06 May 09:54:37 09:55:12 10° 356° (N) 09:55:48 435.822/435.867
NANOSAT C BR1 06 May 10:03:32 10:06:48 22° 48° (NE) 10:10:04 145.865
Oscar 19 06 May 10:03:34 10:05:32 12° 19° (NNE) 10:07:30 437.125/150
CUTE-I 06 May 10:10:42 10:15:29 35° 310° (NW) 10:20:15 437.470
HORYU 2 06 May 10:11:17 10:12:31 11° 332° (NNW) 10:13:46 437.375
ANTELSAT 06 May 10:14:42 10:19:13 63° 66° (ENE) 10:23:38 437.575/2403.000
DELFI C3 06 May 10:15:16 10:17:35 15° 84° (E) 10:19:54 145.870
M-CUBED/EXP-1 PRIME 06 May 10:17:31 10:21:39 65° 303° (WNW) 10:25:25 437.505
BRITE-PL 06 May 10:21:57 10:26:48 30° 312° (NW) 10:31:40 437.365/2234.400
HUMSAT D 06 May 10:24:27 10:24:46 10° 78° (ENE) 10:25:05 437.325/437.525
CUTE 1.7 + AOD 2 06 May 10:25:48 10:30:02 89° 94° (E) 10:34:18 437.475
Oscar 11 06 May 10:27:28 10:31:18 30° 93° (E) 10:35:06 145.826/435.025
Gurwin Techsat 1B 06 May 10:30:13 10:32:03 12° 15° (NNE) 10:33:54 435.225
SO-50 06 May 10:30:37 10:35:34 80° 344° (NNW) 10:40:25 436.795
AUBIESAT-1 06 May 10:32:44 10:36:45 57° 304° (NW) 10:40:27 437.475
GONETS M04 06 May 10:34:13 10:42:44 49° 56° (NE) 10:51:08
ISS 06 May 10:39:26 10:40:59 13° 185° (S) 10:42:33 145.825
NOAA 15 06 May 10:40:20 10:44:24 23° 321° (NW) 10:48:29 137.62
COMPASS 1 06 May 10:41:47 10:45:59 77° 106° (ESE) 10:50:09 437.405
FUNcube-1 06 May 10:44:53 10:48:46 34° 95° (E) 10:52:34 145.935
JAS-2 06 May 10:45:15 10:50:56 28° 33° (NNE) 10:57:03 435.910
SEEDS 06 May 10:45:51 10:50:04 81° 289° (WNW) 10:54:17 437.485
AIST 1 06 May 10:48:58 10:53:14 43° 64° (ENE) 10:57:28
DOVE 4 06 May 10:49:30 10:54:20 38° 305° (NW) 10:58:57 437.250
DUCHIFAT 1 06 May 10:53:01 10:56:59 39° 59° (ENE) 11:00:58 145.980
Cubesat XI-IV 06 May 10:56:41 11:00:48 23° 320° (NW) 11:04:54 437.490
NOAA 18 06 May 10:57:18 11:01:28 23° 323° (NW) 11:05:38 137.9125
QB50P2 06 May 10:58:54 11:03:00 46° 62° (ENE) 11:07:08 145.880/145.840
POLYITAN 1 06 May 11:01:06 11:05:14 47° 62° (ENE) 11:09:21 437.675
POPSAT HIP 1 06 May 11:02:36 11:06:43 47° 62° (ENE) 11:10:51 437.405
CINEMA 3 06 May 11:03:44 11:08:23 54° 297° (WNW) 11:12:48 145.822/145.860
QB50P1 06 May 11:05:23 11:09:32 50° 62° (ENE) 11:13:42 145.935-145.965
UWE-3 06 May 11:07:45 11:12:04 67° 103° (ESE) 11:16:16 435.000/436.395/437.385
AAUSAT CUBESAT 2 06 May 11:08:42 11:12:52 79° 290° (WNW) 11:17:02 437.432
UNISAT 6 06 May 11:09:18 11:13:50 58° 257° (WSW) 11:18:16 437.425
GOMX 1 06 May 11:13:41 11:18:00 24° 317° (NW) 11:22:14 467.674
BUGSAT 1 06 May 11:18:04 11:22:01 37° 58° (ENE) 11:25:58 437.445
AO-7 06 May 11:19:22 11:26:01 28° 3° (N) 11:32:41 29.400- 29.500
CUBEBUG 2 06 May 11:23:50 11:28:15 76° 291° (WNW) 11:32:30 437.445
TIGRISAT 06 May 11:25:36 11:30:02 47° 260° (W) 11:34:22 435.000
ZACube-1 06 May 11:29:18 11:33:35 74° 106° (ESE) 11:37:45 437.345
CANX-2 06 May 11:29:51 11:33:39 32° 303° (WNW) 11:37:26 2200.000
ITAMSAT 1 06 May 11:30:36 11:32:45 13° 20° (NNE) 11:34:54 435.822/435.867
HO-68 06 May 11:31:50 11:38:55 65° 303° (WNW) 11:45:59 435.675
ESTCUBE 1 06 May 11:32:54 11:34:49 12° 79° (E) 11:36:44 437.505/2401.250
NANOSAT C BR1 06 May 11:37:46 11:42:04 80° 68° (ENE) 11:46:21 145.865
Oscar 19 06 May 11:39:14 11:43:20 24° 42° (NE) 11:47:27 437.125/150
Cosmos 2491 06 May 11:42:48 11:49:50 25° 335° (NNW) 11:56:51 435.465 / 435.565
Cosmos 2499 06 May 11:44:14 11:51:41 58° 64° (ENE) 11:59:41 435.465 / 435.565
DX 1 06 May 11:45:49 11:46:07 10° 78° (ENE) 11:46:26 434.975-435.025
DELFI C3 06 May 11:49:12 11:53:13 71° 105° (ESE) 11:57:13 145.870
CUTE-I 06 May 11:51:15 11:54:18 16° 333° (NNW) 11:57:20 437.470
ANTELSAT 06 May 11:52:13 11:56:16 31° 267° (W) 12:00:16 437.575/2403.000
M-CUBED/EXP-1 PRIME 06 May 11:52:28 11:55:37 21° 325° (NW) 11:58:34 437.505
HUMSAT D 06 May 11:57:30 12:01:29 47° 100° (E) 12:05:26 437.325/437.525
BRITE-PL 06 May 12:00:55 12:03:49 14° 335° (NNW) 12:06:44 437.365/2234.400
VELOX 1 06 May 12:01:07 12:03:44 15° 83° (E) 12:06:20 145.980
CUTE 1.7 + AOD 2 06 May 12:02:08 12:05:30 23° 309° (NW) 12:08:52 437.475
Oscar 11 06 May 12:03:29 12:07:45 60° 295° (WNW) 12:12:01 145.826/435.025
Gurwin Techsat 1B 06 May 12:06:24 12:10:23 22° 39° (NE) 12:14:22 435.225
AUBIESAT-1 06 May 12:07:40 12:10:35 19° 327° (NNW) 12:13:22 437.475
SO-50 06 May 12:11:30 12:16:24 70° 7° (N) 12:21:11 436.795
50 SAT 06 May 12:12:23 12:14:44 16° 87° (E) 12:17:04 437.505
COMPASS 1 06 May 12:17:47 12:21:15 26° 307° (NW) 12:24:42 437.405
NOAA 15 06 May 12:20:34 12:22:36 12° 344° (NNW) 12:24:39 137.62
FUNcube-1 06 May 12:21:07 12:25:15 51° 297° (WNW) 12:29:17 145.935
SEEDS 06 May 12:22:07 12:25:18 21° 311° (NW) 12:28:29 437.485
AIST 1 06 May 12:26:42 12:30:52 41° 266° (W) 12:35:01
DOVE 4 06 May 12:27:49 12:30:50 16° 328° (NNW) 12:33:49 437.250
JAS-2 06 May 12:28:14 12:34:46 59° 58° (ENE) 12:42:06 435.910
DUCHIFAT 1 06 May 12:28:33 12:32:41 47° 260° (W) 12:36:51 145.980
GONETS M04 06 May 12:31:27 12:40:12 72° 263° (W) 12:48:51
AISAT 06 May 12:33:13 12:36:58 25° 91° (E) 12:40:40 437.250
AO-85 06 May 12:34:08 12:37:44 18° 117° (ESE) 12:41:17 145.980
QB50P2 06 May 12:34:55 12:38:57 39° 263° (W) 12:43:01 145.880/145.840
POLYITAN 1 06 May 12:37:09 12:41:11 38° 263° (W) 12:45:13 437.675
Cubesat XI-IV 06 May 12:37:14 12:39:17 12° 344° (NNW) 12:41:21 437.490
NOAA 18 06 May 12:38:06 12:40:31 13° 347° (NNW) 12:42:55 137.9125
POPSAT HIP 1 06 May 12:38:38 12:42:39 38° 263° (W) 12:46:42 437.405
CINEMA 3 06 May 12:41:30 12:44:41 18° 320° (NW) 12:47:46 145.822/145.860
QB50P1 06 May 12:41:31 12:45:30 36° 264° (W) 12:49:30 145.935-145.965
UWE-3 06 May 12:44:33 12:48:19 29° 306° (NW) 12:51:58 435.000/436.395/437.385
AAUSAT CUBESAT 2 06 May 12:44:47 12:47:53 21° 311° (NW) 12:50:58 437.432
UNISAT 6 06 May 12:49:09 12:51:30 14° 279° (W) 12:53:52 437.425
GOMX 1 06 May 12:52:24 12:54:27 12° 340° (NNW) 12:56:30 467.674
BUGSAT 1 06 May 12:53:12 12:57:21 50° 259° (W) 13:01:32 437.445
CUBEBUG 1 06 May 12:58:21 13:02:29 35° 96° (E) 13:06:35 437.445
CUBEBUG 2 06 May 13:01:01 13:04:19 21° 313° (NW) 13:07:33 437.445
ZACube-1 06 May 13:06:00 13:09:35 27° 308° (NW) 13:13:07 437.345
TIGRISAT 06 May 13:06:30 13:07:51 11° 282° (WNW) 13:09:12 435.000
ITAMSAT 1 06 May 13:06:34 13:10:46 26° 43° (NE) 13:14:58 435.822/435.867
CANX-2 06 May 13:07:06 13:08:28 11° 325° (NW) 13:09:49 2200.000
ESTCUBE 1 06 May 13:08:17 13:12:44 51° 101° (E) 13:17:10 437.505/2401.250
AO-7 06 May 13:09:37 13:16:58 37° 29° (NNE) 13:24:20 29.400- 29.500
NANOSAT C BR1 06 May 13:14:54 13:18:19 23° 270° (W) 13:21:44 145.865
Oscar 19 06 May 13:16:50 13:22:00 70° 65° (ENE) 13:27:13 437.125/150
UKube-1 06 May 13:18:07 13:22:12 37° 98° (E) 13:26:15 .
DX 1 06 May 13:19:16 13:23:30 43° 99° (E) 13:27:43 434.975-435.025
HO-68 06 May 13:19:42 13:25:43 30° 328° (NNW) 13:31:44 435.675
DELFI C3 06 May 13:24:29 13:27:50 26° 306° (NW) 13:31:10 145.870
M-CUBED/EXP-1 PRIME 06 May 13:27:32 13:28:55 11° 348° (NNW) 13:30:16 437.505
CUTE-I 06 May 13:31:24 13:32:29 11° 357° (N) 13:33:34 437.470
HUMSAT D 06 May 13:33:19 13:37:07 37° 301° (WNW) 13:40:52 437.325/437.525
VELOX 1 06 May 13:36:38 13:41:08 63° 105° (ESE) 13:45:34 145.980
Cosmos 2499 06 May 13:37:36 13:44:54 54° 268° (W) 13:52:46 435.465 / 435.565
BRITE-PL 06 May 13:39:35 13:40:15 10° 358° (N) 13:40:55 437.365/2234.400
SPROUT 06 May 13:40:16 13:44:19 37° 97° (E) 13:48:18 437.525
Oscar 11 06 May 13:40:18 13:43:13 18° 316° (NW) 13:46:08 145.826/435.025
AUBIESAT-1 06 May 13:42:49 13:43:48 11° 349° (N) 13:44:47 437.475
Cosmos 2491 06 May 13:44:08 13:50:35 21° 8° (N) 13:57:01 435.465 / 435.565
Gurwin Techsat 1B 06 May 13:44:18 13:49:31 59° 62° (ENE) 13:54:46 435.225
50 SAT 06 May 13:45:25 13:49:06 87° 108° (ESE) 13:52:47 437.505
SO-50 06 May 13:52:11 13:57:03 74° 211° (SSW) 14:01:47 436.795
CUSAT 1 06 May 13:56:18 13:58:18 12° 67° (ENE) 14:00:28 437.405
FUNcube-1 06 May 13:58:12 14:00:43 16° 319° (NW) 14:03:13 145.935
NOAA 15 06 May 13:58:54 14:00:25 11° 9° (N) 14:01:56 137.62
TISAT 1 06 May 13:59:08 14:02:33 23° 90° (E) 14:05:56 437.305
DUCHIFAT 1 06 May 14:08:29 14:09:29 11° 281° (WNW) 14:10:29 145.980
AISAT 06 May 14:09:26 14:13:57 77° 292° (WNW) 14:18:26 437.250
AO-85 06 May 14:12:08 14:17:24 51° 138° (SE) 14:22:26 145.980
JAS-2 06 May 14:13:34 14:20:01 53° 263° (W) 14:27:18 435.910
Cubesat XI-IV 06 May 14:15:58 14:17:23 11° 8° (N) 14:18:47 437.490
NOAA 18 06 May 14:16:52 14:19:14 13° 12° (NNE) 14:21:35 137.9125
ITUPSAT 1 06 May 14:17:37 14:19:13 11° 78° (ENE) 14:20:48 437.325
UWE-3 06 May 14:22:33 14:23:37 11° 329° (NNW) 14:24:39 435.000/436.395/437.385
SWISSCUBE 06 May 14:24:09 14:26:37 14° 81° (E) 14:29:04 437.505
GONETS M04 06 May 14:28:48 14:35:41 27° 289° (WNW) 14:42:32
BUGSAT 1 06 May 14:32:22 14:33:47 11° 281° (W) 14:35:11 437.445
CUBEBUG 1 06 May 14:34:38 14:39:00 53° 297° (WNW) 14:43:20 437.445
ITAMSAT 1 06 May 14:44:29 14:49:40 76° 66° (ENE) 14:54:51 435.822/435.867
ESTCUBE 1 06 May 14:45:17 14:49:30 39° 303° (WNW) 14:53:45 437.505/2401.250
HORYU 2 06 May 14:53:56 14:57:03 19° 42° (NE) 15:00:11 437.375
UKube-1 06 May 14:54:12 14:58:25 49° 299° (WNW) 15:02:37 .
DX 1 06 May 14:55:35 14:59:47 44° 301° (WNW) 15:03:57 434.975-435.025
BEESAT 06 May 14:56:12 14:59:48 21° 87° (E) 15:03:23 436.000
Oscar 19 06 May 14:57:05 15:01:47 33° 267° (W) 15:06:30 437.125/150
AO-7 06 May 15:00:37 15:08:50 72° 55° (NE) 15:17:08 29.400- 29.500
M-CUBED/EXP-1 PRIME 06 May 15:00:44 15:01:59 11° 10° (N) 15:03:13 437.505
HO-68 06 May 15:06:38 15:11:37 21° 353° (N) 15:16:37 435.675
CUTE-I 06 May 15:08:03 15:10:35 14° 22° (NNE) 15:13:08 437.470
HUMSAT D 06 May 15:10:11 15:11:48 12° 323° (NW) 15:13:24 437.325/437.525
VELOX 1 06 May 15:13:24 15:17:25 33° 306° (NW) 15:21:26 145.980
PCSat 06 May 15:13:40 15:16:50 16° 108° (ESE) 15:20:00 145.827
BRITE-PL 06 May 15:14:07 15:16:39 13° 22° (NNE) 15:19:14 437.365/2234.400
DANDE 06 May 15:15:14 15:17:49 17° 77° (ENE) 15:20:51 436.750
AUBIESAT-1 06 May 15:15:40 15:16:49 11° 12° (NNE) 15:17:57 437.475
SPROUT 06 May 15:16:15 15:20:26 49° 298° (WNW) 15:24:35 437.525
50 SAT 06 May 15:19:46 15:22:31 20° 309° (NW) 15:25:15 437.505
O/OREOS (USA 219) 06 May 15:24:33 15:28:44 36° 115° (ESE) 15:32:56 437.305
Gurwin Techsat 1B 06 May 15:24:46 15:29:45 40° 263° (W) 15:34:47 435.225
Cosmos 2499 06 May 15:31:37 15:36:29 19° 293° (WNW) 15:41:34 435.465 / 435.565
SO-50 06 May 15:32:59 15:37:02 28° 233° (SW) 15:41:00 436.795
CUSAT 1 06 May 15:34:16 15:38:39 46° 93° (E) 15:44:24 437.405
TISAT 1 06 May 15:34:26 15:38:43 78° 292° (WNW) 15:42:57 437.305
NOAA 15 06 May 15:34:53 15:38:26 19° 33° (NNE) 15:42:01 137.62
DOVE 4 06 May 15:41:50 15:42:16 10° 15° (NNE) 15:42:42 437.250
Cosmos 2491 06 May 15:43:04 15:50:54 33° 40° (NE) 15:58:41 435.465 / 435.565
AISAT 06 May 15:46:25 15:49:54 22° 314° (NW) 15:53:22 437.250
Cubesat XI-IV 06 May 15:52:11 15:55:41 18° 33° (NNE) 15:59:13 437.490
AO-85 06 May 15:52:25 15:57:51 82° 340° (NNW) 16:02:59 145.980
ITUPSAT 1 06 May 15:53:41 15:58:18 46° 100° (E) 16:02:55 437.325
KKS-1 06 May 15:53:48 15:55:49 13° 80° (E) 15:57:50 437.445
NOAA 18 06 May 15:54:07 15:58:15 22° 36° (NE) 16:02:23 137.9125
SWISSCUBE 06 May 16:00:48 16:05:31 55° 103° (ESE) 16:10:12 437.505
JAS-2 06 May 16:02:33 16:06:58 18° 288° (WNW) 16:11:43 435.910
GOMX 1 06 May 16:03:39 16:06:32 15° 28° (NNE) 16:09:27 467.674
CUBEBUG 1 06 May 16:11:37 16:14:31 17° 319° (NW) 16:17:25 437.445
YUBILEINY 06 May 16:17:53 16:19:14 10° 48° (NE) 16:20:36 435.215
ESTCUBE 1 06 May 16:22:58 16:25:21 14° 325° (NW) 16:27:43 437.505/2401.250
ITAMSAT 1 06 May 16:25:08 16:29:40 30° 268° (W) 16:34:13 435.822/435.867
MOZHAYETS 4 06 May 16:26:53 16:29:58 17° 84° (E) 16:33:02
HORYU 2 06 May 16:28:32 16:32:57 61° 64° (ENE) 16:37:21 437.375
UKube-1 06 May 16:30:59 16:33:41 16° 320° (NW) 16:36:22 .
M-CUBED/EXP-1 PRIME 06 May 16:32:07 16:35:17 19° 32° (NNE) 16:38:18 437.505
DX 1 06 May 16:32:35 16:35:05 15° 323° (NW) 16:37:37 434.975-435.025
BEESAT 06 May 16:33:32 16:38:20 83° 109° (ESE) 16:43:08 436.000
CUTE-I 06 May 16:44:45 16:49:13 28° 45° (NE) 16:53:41 437.470
AUBIESAT-1 06 May 16:46:54 16:50:04 20° 34° (NE) 16:53:07 437.475
BRITE-PL 06 May 16:49:08 16:53:33 27° 46° (NE) 16:58:12 437.365/2234.400
VELOX 1 06 May 16:50:55 16:52:48 13° 328° (NNW) 16:54:42 145.980
HO-68 06 May 16:51:56 16:57:19 24° 19° (NNE) 17:02:43 435.675
SPROUT 06 May 16:53:01 16:55:35 16° 320° (NW) 16:58:09 437.525
PCSat 06 May 16:53:55 16:59:09 50° 130° (SE) 17:04:24 145.827
AO-7 06 May 16:54:11 17:02:09 49° 260° (W) 17:10:13 29.400- 29.500
DANDE 06 May 16:55:47 16:59:34 81° 107° (ESE) 17:04:44 436.750
O/OREOS (USA 219) 06 May 17:03:24 17:07:59 66° 317° (NW) 17:12:34 437.305
Gurwin Techsat 1B 06 May 17:10:09 17:11:17 11° 287° (WNW) 17:12:25 435.225
TISAT 1 06 May 17:10:39 17:13:52 21° 313° (NW) 17:17:05 437.305
NOAA 15 06 May 17:12:11 17:17:12 45° 56° (NE) 17:22:16 137.62
DOVE 4 06 May 17:14:35 17:18:13 19° 38° (NE) 17:21:51 437.250
CUSAT 1 06 May 17:16:12 17:20:49 49° 302° (WNW) 17:26:55 437.405
LilacSat-2 06 May 17:25:40 17:28:59 27° 56° (NE) 17:32:17 437.200
CINEMA 3 06 May 17:28:29 17:30:33 13° 31° (NNE) 17:32:37 145.822/145.860
KKS-1 06 May 17:29:01 17:33:27 54° 102° (ESE) 17:37:50 437.445
Cubesat XI-IV 06 May 17:29:42 17:34:43 44° 56° (NE) 17:39:46 437.490
ITUPSAT 1 06 May 17:31:39 17:36:14 46° 301° (WNW) 17:40:48 437.325
NOAA 18 06 May 17:32:42 17:38:04 56° 59° (ENE) 17:43:26 137.9125
AO-85 06 May 17:33:25 17:38:45 68° 4° (N) 17:43:41 145.980
STARS 06 May 17:34:01 17:38:11 38° 97° (E) 17:42:19 437.465
GOMX 1 06 May 17:38:31 17:43:14 32° 51° (NE) 17:48:05 467.674
SWISSCUBE 06 May 17:38:49 17:43:16 40° 304° (NW) 17:47:42 437.505
Cosmos 2491 06 May 17:40:34 17:49:28 73° 69° (ENE) 17:58:16 435.465 / 435.565
CANX-2 06 May 17:49:01 17:50:37 12° 36° (NE) 17:52:13 2200.000
MOZHAYETS 4 06 May 18:03:22 18:07:58 73° 105° (ESE) 18:12:33
M-CUBED/EXP-1 PRIME 06 May 18:04:41 18:09:08 49° 53° (NE) 18:13:21 437.505
YUBILEINY 06 May 18:05:47 18:13:02 31° 75° (ENE) 18:20:17 435.215
HORYU 2 06 May 18:05:50 18:09:50 31° 265° (W) 18:13:50 437.375
BEESAT 06 May 18:11:41 18:15:47 29° 310° (NW) 18:19:51 436.000
AUBIESAT-1 06 May 18:19:30 18:23:56 53° 54° (NE) 18:28:07 437.475
CUTE 1.7 + AOD 2 06 May 18:19:44 18:22:15 16° 42° (NE) 18:24:47 437.475
CUBESAT XI-V 06 May 18:23:16 18:27:14 26° 90° (E) 18:31:13 437.345
CUTE-I 06 May 18:23:26 18:28:46 83° 67° (ENE) 18:34:08 437.470
BRITE-PL 06 May 18:26:08 18:31:23 79° 69° (ENE) 18:37:01 437.365/2234.400
BEESAT 3 06 May 18:34:37 18:37:04 16° 121° (ESE) 18:39:32 437.485
COMPASS 1 06 May 18:34:51 18:36:57 14° 40° (NE) 18:39:03 437.405
HO-68 06 May 18:36:59 18:43:36 42° 45° (NE) 18:50:14 435.675
PCSat 06 May 18:37:02 18:42:29 73° 334° (NNW) 18:47:58 145.827
SEEDS 06 May 18:38:50 18:41:30 17° 44° (NE) 18:44:10 437.485
DANDE 06 May 18:39:42 18:43:15 26° 316° (NW) 18:47:45 436.750
O/OREOS (USA 219) 06 May 18:44:04 18:48:08 30° 341° (NNW) 18:52:12 437.305
DOVE 4 06 May 18:49:51 18:54:57 49° 61° (ENE) 19:00:05 437.250
BEESAT 2 06 May 18:50:38 18:52:56 15° 120° (ESE) 18:55:13 435.950
NOAA 15 06 May 18:51:49 18:57:00 54° 258° (WSW) 19:02:15 137.62
AO-7 06 May 18:52:16 18:57:17 17° 286° (WNW) 19:02:20 29.400- 29.500
Cosmos 2504 06 May 18:53:25 18:57:31 16° 65° (ENE) 19:01:40 435.465 / 435.565
LilacSat-2 06 May 18:59:14 19:03:06 62° 257° (WSW) 19:06:57 437.200
AAUSAT CUBESAT 2 06 May 19:00:36 19:03:13 16° 44° (NE) 19:05:50 437.432
CUSAT 1 06 May 19:00:40 19:04:41 21° 331° (NNW) 19:09:28 437.405
CINEMA 3 06 May 19:02:08 19:06:28 31° 53° (NE) 19:10:44 145.822/145.860
UWE-3 06 May 19:05:05 19:07:36 15° 39° (NE) 19:10:05 435.000/436.395/437.385
KKS-1 06 May 19:05:48 19:09:57 37° 304° (NW) 19:14:05 437.445
Cubesat XI-IV 06 May 19:09:33 19:14:48 56° 258° (WSW) 19:20:04 437.490
ITUPSAT 1 06 May 19:10:09 19:13:10 17° 324° (NW) 19:16:11 437.325
STARS 06 May 19:10:25 19:14:44 50° 299° (WNW) 19:18:59 437.465
NOAA 18 06 May 19:13:42 19:18:58 44° 261° (W) 19:24:13 137.9125
AO-85 06 May 19:14:17 19:19:30 82° 208° (SSW) 19:24:17 145.980
GOMX 1 06 May 19:15:32 19:20:54 84° 252° (WSW) 19:26:28 467.674
SWISSCUBE 06 May 19:17:21 19:20:03 15° 327° (NNW) 19:22:44 437.505
CUBEBUG 2 06 May 19:20:42 19:24:08 21° 47° (NE) 19:27:31 437.445
CANX-2 06 May 19:21:38 19:25:29 35° 58° (ENE) 19:29:20 2200.000
ZACube-1 06 May 19:25:39 19:28:11 15° 41° (NE) 19:30:42 437.345
Cosmos 2491 06 May 19:37:47 19:46:01 46° 275° (W) 19:54:12 435.465 / 435.565
M-CUBED/EXP-1 PRIME 06 May 19:39:18 19:43:46 44° 252° (WSW) 19:48:01 437.505
DELFI C3 06 May 19:39:25 19:40:51 12° 38° (NE) 19:42:18 145.870
MOZHAYETS 4 06 May 19:40:54 19:44:52 30° 307° (NW) 19:48:50
RS-15 06 May 19:43:34 19:47:01 12° 82° (E) 19:50:31 29.354- 29.394
STRAND 1 06 May 19:49:23 19:53:14 21° 86° (E) 19:57:04 437.568
BEESAT 06 May 19:50:26 19:52:18 12° 333° (NNW) 19:54:12 436.000
HUMSAT D 06 May 19:52:32 19:53:20 10° 33° (NNE) 19:54:09 437.325/437.525
CUTE 1.7 + AOD 2 06 May 19:53:15 19:57:21 51° 64° (ENE) 20:01:27 437.475
AUBIESAT-1 06 May 19:54:16 19:58:33 39° 254° (WSW) 20:02:40 437.475
Oscar 11 06 May 19:57:46 20:01:09 23° 49° (NE) 20:04:31 145.826/435.025
YUBILEINY 06 May 20:00:04 20:08:48 82° 102° (ESE) 20:17:32 435.215
CUBESAT XI-V 06 May 20:00:25 20:05:09 77° 291° (WNW) 20:09:51 437.345
CUTE-I 06 May 20:04:56 20:09:27 28° 270° (W) 20:14:01 437.470
BRITE-PL 06 May 20:05:52 20:10:28 30° 272° (W) 20:15:21 437.365/2234.400
COMPASS 1 06 May 20:07:44 20:11:40 43° 61° (ENE) 20:15:37 437.405
BEESAT 3 06 May 20:10:13 20:14:04 53° 143° (SE) 20:17:58 437.485
SEEDS 06 May 20:12:25 20:16:31 57° 65° (ENE) 20:20:38 437.485
FUNcube-1 06 May 20:15:31 20:19:08 26° 52° (NE) 20:22:42 145.935
PCSat 06 May 20:21:08 20:26:29 53° 359° (N) 20:31:50 145.827
HO-68 06 May 20:23:48 20:30:59 82° 249° (WSW) 20:38:13 435.675
O/OREOS (USA 219) 06 May 20:24:56 20:28:47 25° 6° (N) 20:32:36 437.305
DANDE 06 May 20:25:58 20:28:17 13° 345° (NNW) 20:30:53 436.750
BEESAT 2 06 May 20:26:09 20:30:02 50° 141° (SE) 20:33:56 435.950
DOVE 4 06 May 20:27:35 20:32:43 49° 262° (W) 20:37:55 437.250
AAUSAT CUBESAT 2 06 May 20:33:59 20:38:01 57° 66° (ENE) 20:42:06 437.432
NOAA 15 06 May 20:35:05 20:38:02 15° 281° (W) 20:41:00 137.62
LilacSat-2 06 May 20:36:29 20:38:14 13° 278° (W) 20:39:58 437.200
CINEMA 3 06 May 20:38:16 20:43:18 79° 254° (WSW) 20:48:14 145.822/145.860
UWE-3 06 May 20:38:54 20:43:13 45° 61° (ENE) 20:47:26 435.000/436.395/437.385
Cosmos 2504 06 May 20:42:20 20:49:10 51° 91° (E) 20:56:10 435.465 / 435.565
KKS-1 06 May 20:43:16 20:45:32 14° 326° (NW) 20:47:48 437.445
CUSAT 1 06 May 20:46:07 20:49:29 15° 358° (N) 20:53:15 437.405
STARS 06 May 20:47:31 20:50:17 16° 321° (NW) 20:53:02 437.465
Cubesat XI-IV 06 May 20:53:01 20:56:05 15° 280° (W) 20:59:12 437.490
AO-85 06 May 20:55:05 20:59:34 32° 232° (SW) 21:03:42 145.980
GOMX 1 06 May 20:55:27 20:59:46 24° 275° (W) 21:04:13 467.674
CUBEBUG 2 06 May 20:55:34 21:00:12 71° 69° (ENE) 21:04:43 437.445
CUBEBUG 1 06 May 20:56:55 20:58:05 11° 29° (NNE) 20:59:15 437.445
CANX-2 06 May 20:57:09 21:01:16 52° 259° (W) 21:05:25 2200.000
AIST 2 06 May 20:57:51 21:00:54 20° 124° (SE) 21:03:57 435.215
NOAA 18 06 May 20:59:01 21:01:07 12° 284° (WNW) 21:03:14 137.9125
ZACube-1 06 May 20:59:24 21:03:40 47° 62° (ENE) 21:07:51 437.345
PRISM 06 May 21:01:52 21:04:50 18° 88° (E) 21:07:47 437.425
ESTCUBE 1 06 May 21:08:03 21:10:25 14° 35° (NE) 21:12:48 437.505/2401.250
DELFI C3 06 May 21:11:10 21:14:49 37° 60° (ENE) 21:18:30 145.870
UKube-1 06 May 21:15:10 21:16:39 12° 31° (NNE) 21:18:09 .
DX 1 06 May 21:16:29 21:18:27 13° 33° (NNE) 21:20:25 434.975-435.025
M-CUBED/EXP-1 PRIME 06 May 21:17:59 21:19:20 11° 273° (W) 21:20:40 437.505
MOZHAYETS 4 06 May 21:19:16 21:20:51 12° 330° (NNW) 21:22:27
HUMSAT D 06 May 21:24:16 21:27:54 30° 56° (NE) 21:31:32 437.325/437.525
STRAND 1 06 May 21:28:06 21:33:15 78° 109° (ESE) 21:38:23 437.568
CUTE 1.7 + AOD 2 06 May 21:29:34 21:33:24 34° 265° (W) 21:37:17 437.475
50 SAT 06 May 21:30:11 21:31:16 11° 40° (NE) 21:32:22 437.505
Oscar 11 06 May 21:32:30 21:36:49 85° 74° (ENE) 21:41:10 145.826/435.025
VELOX 1 06 May 21:34:13 21:36:56 16° 39° (NE) 21:39:40 145.980
Cosmos 2491 06 May 21:35:37 21:40:35 17° 302° (WNW) 21:45:33 435.465 / 435.565
SPROUT 06 May 21:37:27 21:38:08 10° 30° (NNE) 21:38:49 437.525
CUBESAT XI-V 06 May 21:38:19 21:41:59 23° 313° (NW) 21:45:40 437.345
COMPASS 1 06 May 21:43:26 21:47:20 39° 263° (W) 21:51:16 437.405
RS-15 06 May 21:45:20 21:55:20 37° 111° (ESE) 22:05:45 29.354- 29.394
BEESAT 3 06 May 21:47:50 21:51:48 70° 345° (NNW) 21:55:47 437.485
SEEDS 06 May 21:48:50 21:52:31 30° 267° (W) 21:56:15 437.485
FUNcube-1 06 May 21:50:36 21:55:02 83° 251° (WSW) 21:59:25 145.935
YUBILEINY 06 May 21:58:19 22:06:32 43° 308° (NW) 22:14:47 435.215
GONETS M04 06 May 22:01:53 22:04:21 11° 49° (NE) 22:06:49
BEESAT 2 06 May 22:03:51 22:07:52 72° 344° (NNW) 22:11:53 435.950
O/OREOS (USA 219) 06 May 22:04:55 22:09:16 40° 31° (NNE) 22:13:34 437.305
PCSat 06 May 22:05:03 22:10:31 69° 23° (NNE) 22:15:58 145.827
AISAT 06 May 22:05:51 22:09:21 23° 47° (NE) 22:12:51 437.250
DOVE 4 06 May 22:09:02 22:11:42 14° 284° (WNW) 22:14:23 437.250
AAUSAT CUBESAT 2 06 May 22:10:11 22:13:49 29° 267° (W) 22:17:29 437.432
DANDE 06 May 22:11:28 22:13:52 13° 13° (NNE) 22:16:32 436.750
HO-68 06 May 22:13:45 22:19:48 29° 272° (W) 22:25:53 435.675
UWE-3 06 May 22:15:24 22:19:46 43° 262° (W) 22:24:02 435.000/436.395/437.385
CINEMA 3 06 May 22:17:28 22:21:12 21° 275° (W) 22:24:53 145.822/145.860
CUBEBUG 1 06 May 22:29:24 22:33:10 28° 51° (NE) 22:36:57 437.445
CUSAT 1 06 May 22:29:51 22:34:23 19° 25° (NNE) 22:39:30 437.405
CUBEBUG 2 06 May 22:33:15 22:37:15 28° 269° (W) 22:41:10 437.445
AIST 2 06 May 22:34:41 22:38:48 63° 145° (SE) 22:42:55 435.215
Cosmos 2504 06 May 22:35:34 22:42:36 57° 297° (WNW) 22:49:51 435.465 / 435.565
ZACube-1 06 May 22:35:55 22:40:06 39° 263° (W) 22:44:13 437.345
PRISM 06 May 22:36:35 22:40:48 85° 107° (ESE) 22:45:00 437.425
CANX-2 06 May 22:36:39 22:38:09 12° 281° (W) 22:39:40 2200.000
ESTCUBE 1 06 May 22:42:04 22:46:14 39° 58° (ENE) 22:50:28 437.505/2401.250
DELFI C3 06 May 22:45:54 22:49:42 44° 261° (W) 22:53:32 145.870
UKube-1 06 May 22:47:47 22:51:35 30° 53° (NE) 22:55:25 .
DX 1 06 May 22:49:37 22:53:36 35° 55° (NE) 22:57:37 434.975-435.025
UNISAT 6 06 May 22:50:43 22:53:25 16° 83° (E) 22:56:05 437.425
HUMSAT D 06 May 22:59:14 23:03:22 62° 257° (WSW) 23:07:29 437.325/437.525
50 SAT 06 May 23:00:49 23:04:13 38° 61° (ENE) 23:07:39 437.505
BEESAT 06 May 23:03:10 23:04:08 11° 21° (NNE) 23:05:07 436.000
TIGRISAT 06 May 23:06:22 23:09:33 19° 86° (E) 23:12:40 435.000
STRAND 1 06 May 23:07:37 23:12:08 32° 310° (NW) 23:16:39 437.568
VELOX 1 06 May 23:08:17 23:12:34 47° 60° (ENE) 23:16:53 145.980
SPROUT 06 May 23:09:16 23:12:55 27° 52° (NE) 23:16:34 437.525
Oscar 11 06 May 23:10:12 23:13:32 21° 272° (W) 23:16:53 145.826/435.025
BEESAT 3 06 May 23:25:52 23:29:50 63° 8° (N) 23:33:47 437.485
TISAT 1 06 May 23:26:59 23:30:02 19° 45° (NE) 23:33:04 437.305
FUNcube-1 06 May 23:28:48 23:31:58 19° 274° (W) 23:35:06 145.935
AIST 1 06 May 23:32:01 23:34:18 14° 77° (ENE) 23:36:35
ANTELSAT 06 May 23:32:13 23:36:04 29° 93° (E) 23:39:51 437.575/2403.000
AISAT 06 May 23:40:50 23:45:19 78° 68° (ENE) 23:49:51 437.250
BEESAT 2 06 May 23:42:03 23:46:03 62° 8° (N) 23:50:02 435.950
O/OREOS (USA 219) 06 May 23:44:27 23:49:01 71° 234° (SW) 23:53:30 437.305
PCSat 06 May 23:48:37 23:53:56 55° 227° (SW) 23:59:14 145.827
GONETS M04 06 May 23:50:45 23:58:16 33° 77° (ENE) 00:05:47
DANDE 06 May 23:54:33 23:59:04 22° 39° (NE) 00:04:27 436.750
RS-15 06 May 23:54:37 00:06:09 74° 140° (SE) 00:18:19 29.354- 29.394
UWE-3 06 May 23:56:52 23:57:24 10° 283° (WNW) 23:57:56 435.000/436.395/437.385
ITUPSAT 1 06 May 23:58:33 00:01:25 16° 35° (NE) 00:04:18 437.325
YUBILEINY 06 May 23:59:30 00:06:11 23° 339° (NNW) 00:12:52 435.215
DUCHIFAT 1 07 May 00:02:19 00:04:58 16° 84° (E) 00:07:35 145.980
CUBEBUG 1 07 May 00:04:42 00:09:08 78° 252° (WSW) 00:13:38 437.445
SWISSCUBE 07 May 00:05:02 00:08:10 18° 38° (NE) 00:11:18 437.505
QB50P2 07 May 00:08:58 00:12:06 20° 87° (E) 00:15:13 145.880/145.840
POLYITAN 1 07 May 00:11:12 00:14:20 20° 87° (E) 00:17:27 437.675
CUSAT 1 07 May 00:12:18 00:18:30 37° 50° (NE) 00:25:40 437.405
PRISM 07 May 00:12:21 00:15:45 24° 310° (NW) 00:19:09 437.425
POPSAT HIP 1 07 May 00:12:30 00:15:40 20° 87° (E) 00:18:47 437.405
AIST 2 07 May 00:13:13 00:17:22 67° 349° (N) 00:21:32 435.215
QB50P1 07 May 00:15:13 00:18:29 21° 88° (E) 00:21:42 145.935-145.965
ESTCUBE 1 07 May 00:18:39 00:23:02 51° 259° (W) 00:27:29 437.505/2401.250
UKube-1 07 May 00:23:05 00:27:25 68° 254° (WSW) 00:31:48 .
BUGSAT 1 07 May 00:24:58 00:27:18 14° 83° (E) 00:29:37 437.445
DX 1 07 May 00:25:21 00:29:41 58° 257° (WSW) 00:34:04 434.975-435.025
UNISAT 6 07 May 00:26:36 00:30:59 71° 105° (ESE) 00:35:17 437.425
Cosmos 2504 07 May 00:32:09 00:37:51 24° 325° (NW) 00:43:42 435.465 / 435.565
50 SAT 07 May 00:34:40 00:38:04 37° 262° (W) 00:41:31 437.505
Cosmos 2499 07 May 00:35:57 00:41:48 29° 78° (ENE) 00:47:52 435.465 / 435.565
BEESAT 07 May 00:36:48 00:40:30 23° 45° (NE) 00:44:13 436.000
HUMSAT D 07 May 00:37:45 00:39:52 14° 278° (W) 00:41:59 437.325/437.525
TIGRISAT 07 May 00:42:32 00:46:55 87° 104° (ESE) 00:51:14 435.000
SPROUT 07 May 00:44:13 00:48:33 77° 253° (WSW) 00:52:55 437.525
VELOX 1 07 May 00:44:56 00:49:10 41° 262° (W) 00:53:26 145.980
NANOSAT C BR1 07 May 00:47:08 00:51:00 33° 95° (E) 00:54:50 145.865
STRAND 1 07 May 00:47:26 00:50:04 14° 333° (NNW) 00:52:42 437.568
TISAT 1 07 May 01:00:51 01:05:05 67° 66° (ENE) 01:09:21 437.305
BEESAT 3 07 May 01:03:43 01:07:41 71° 212° (SSW) 01:11:38 437.485
AIST 1 07 May 01:06:46 01:11:05 62° 99° (E) 01:15:27
ANTELSAT 07 May 01:08:50 01:13:09 61° 295° (WNW) 01:17:22 437.575/2403.000
JAS-2 07 May 01:10:04 01:16:17 26° 80° (E) 01:22:35 435.910
AISAT 07 May 01:18:39 01:22:20 24° 270° (W) 01:26:02 437.250
Oscar 19 07 May 01:18:50 01:20:40 12° 75° (ENE) 01:22:30 437.125/150
BEESAT 2 07 May 01:20:03 01:24:04 75° 210° (SSW) 01:28:04 435.950
O/OREOS (USA 219) 07 May 01:24:38 01:27:44 18° 256° (WSW) 01:30:48 437.305
KKS-1 07 May 01:27:26 01:29:58 15° 36° (NE) 01:32:31 437.445
STARS 07 May 01:32:25 01:34:09 12° 31° (NNE) 01:35:53 437.465
PCSat 07 May 01:32:48 01:36:21 18° 250° (WSW) 01:39:55 145.827
ITUPSAT 1 07 May 01:33:48 01:38:18 43° 57° (ENE) 01:42:49 437.325
DUCHIFAT 1 07 May 01:37:12 01:41:27 72° 105° (ESE) 01:45:40 145.980
DANDE 07 May 01:37:17 01:43:12 52° 61° (ENE) 01:50:39 436.750
SWISSCUBE 07 May 01:40:32 01:45:07 50° 60° (ENE) 01:49:44 437.505
CUBEBUG 1 07 May 01:43:07 01:46:11 18° 275° (W) 01:49:16 437.445
QB50P2 07 May 01:44:15 01:48:34 88° 115° (ESE) 01:52:49 145.880/145.840
GONETS M04 07 May 01:45:17 01:54:09 85° 103° (ESE) 02:03:02
POLYITAN 1 07 May 01:46:30 01:50:47 89° 93° (E) 01:55:02 437.675
POPSAT HIP 1 07 May 01:47:47 01:52:05 89° 77° (ENE) 01:56:20 437.405
QB50P1 07 May 01:50:33 01:54:52 86° 284° (WNW) 01:59:06 145.935-145.965
Gurwin Techsat 1B 07 May 01:51:31 01:52:30 10° 73° (ENE) 01:53:28 435.225
AIST 2 07 May 01:52:03 01:56:12 67° 12° (NNE) 02:00:21 435.215
CUSAT 1 07 May 01:54:29 02:01:26 87° 70° (ENE) 02:09:29 437.405
ESTCUBE 1 07 May 01:59:11 02:00:58 12° 281° (W) 02:02:46 437.505/2401.250
BUGSAT 1 07 May 01:59:19 02:03:33 65° 104° (ESE) 02:07:42 437.445
YUBILEINY 07 May 02:00:35 02:06:56 21° 12° (NNE) 02:13:17 435.215
UKube-1 07 May 02:01:41 02:04:20 16° 276° (W) 02:06:57 .
UNISAT 6 07 May 02:03:41 02:07:27 29° 307° (NW) 02:11:10 437.425
MOZHAYETS 4 07 May 02:03:59 02:06:58 18° 41° (NE) 02:09:59
DX 1 07 May 02:04:38 02:06:51 14° 278° (W) 02:09:04 434.975-435.025
RS-15 07 May 02:07:00 02:18:54 81° 351° (N) 02:31:19 29.354- 29.394
BEESAT 07 May 02:12:58 02:17:43 74° 67° (ENE) 02:22:30 436.000
TIGRISAT 07 May 02:19:40 02:23:14 25° 310° (NW) 02:26:43 435.000
SPROUT 07 May 02:22:21 02:25:16 17° 275° (W) 02:28:12 437.525
NANOSAT C BR1 07 May 02:22:49 02:26:59 54° 297° (WNW) 02:31:06 145.865
Cosmos 2499 07 May 02:26:59 02:34:04 87° 102° (ESE) 02:41:30 435.465 / 435.565
CUBESAT XI-V 07 May 02:28:47 02:28:50 10° 24° (NNE) 02:28:54 437.345
Cosmos 2504 07 May 02:30:09 02:34:31 16° 357° (N) 02:39:00 435.465 / 435.565
TISAT 1 07 May 02:37:30 02:41:08 27° 268° (W) 02:44:49 437.305
BEESAT 3 07 May 02:41:46 02:44:55 23° 233° (SW) 02:48:03 437.485
AIST 1 07 May 02:45:09 02:49:02 30° 302° (WNW) 02:52:59
ANTELSAT 07 May 02:46:12 02:49:11 18° 317° (NW) 02:52:08 437.575/2403.000
ITAMSAT 1 07 May 02:47:29 02:49:41 12° 77° (ENE) 02:51:52 435.822/435.867
AO-7 07 May 02:52:03 02:53:59 11° 65° (ENE) 02:55:55 29.400- 29.500
JAS-2 07 May 02:54:56 03:02:39 68° 103° (ESE) 03:10:31 435.910
Oscar 19 07 May 02:56:24 03:01:25 44° 98° (E) 03:06:24 437.125/150
BEESAT 2 07 May 02:58:12 03:01:30 25° 232° (SW) 03:04:46 435.950
KKS-1 07 May 03:01:23 03:05:38 42° 58° (ENE) 03:09:53 437.445
STARS 07 May 03:05:28 03:09:24 31° 53° (NE) 03:13:20 437.465
ITUPSAT 1 07 May 03:11:31 03:16:10 50° 259° (W) 03:20:50 437.325
DUCHIFAT 1 07 May 03:13:16 03:16:53 28° 307° (NW) 03:20:29 145.980
SWISSCUBE 07 May 03:18:34 03:23:05 42° 262° (W) 03:27:38 437.505
DANDE 07 May 03:20:11 03:26:17 60° 260° (W) 03:33:55 436.750
QB50P2 07 May 03:20:32 03:23:58 24° 310° (NW) 03:27:22 145.880/145.840
POLYITAN 1 07 May 03:22:46 03:26:11 24° 310° (NW) 03:29:35 437.675
POPSAT HIP 1 07 May 03:24:03 03:27:28 24° 310° (NW) 03:30:52 437.405
QB50P1 07 May 03:26:50 03:30:11 23° 311° (NW) 03:33:31 145.935-145.965
Gurwin Techsat 1B 07 May 03:29:01 03:34:02 40° 96° (E) 03:39:01 435.225
AIST 2 07 May 03:30:39 03:34:46 62° 215° (SW) 03:38:53 435.215
BUGSAT 1 07 May 03:35:01 03:38:43 30° 306° (NW) 03:42:23 437.445
CUSAT 1 07 May 03:36:56 03:43:12 36° 272° (W) 03:50:14 437.405
MOZHAYETS 4 07 May 03:38:55 03:43:22 53° 63° (ENE) 03:47:50
UNISAT 6 07 May 03:41:50 03:43:00 11° 330° (NNW) 03:44:09 437.425
GONETS M04 07 May 03:43:45 03:52:02 42° 310° (NW) 04:00:18
BEESAT 07 May 03:51:54 03:55:59 28° 268° (W) 04:00:07 436.000
YUBILEINY 07 May 03:59:10 04:07:02 35° 44° (NE) 04:14:52 435.215
NANOSAT C BR1 07 May 03:59:19 04:01:59 16° 318° (NW) 04:04:38 145.865
CUBESAT XI-V 07 May 04:01:10 04:04:49 23° 47° (NE) 04:08:30 437.345
STRAND 1 07 May 04:02:34 04:04:38 12° 22° (NNE) 04:06:42 437.568
RS-15 07 May 04:20:05 04:32:11 88° 22° (NNE) 04:44:38 29.354- 29.394
Cosmos 2499 07 May 04:21:41 04:28:09 36° 311° (NW) 04:34:56 435.465 / 435.565
ITAMSAT 1 07 May 04:25:29 04:30:31 47° 100° (E) 04:35:31 435.822/435.867
Cosmos 2504 07 May 04:25:53 04:31:22 22° 29° (NNE) 04:37:04 435.465 / 435.565
AIST 1 07 May 04:27:12 04:28:09 11° 326° (NNW) 04:29:08
Oscar 19 07 May 04:35:51 04:40:56 53° 300° (WNW) 04:45:59 437.125/150
KKS-1 07 May 04:37:53 04:42:14 47° 260° (W) 04:46:37 437.445
JAS-2 07 May 04:40:13 04:47:34 52° 306° (NW) 04:55:07 435.910
STARS 07 May 04:41:07 04:45:34 67° 255° (WSW) 04:50:01 437.465
AO-7 07 May 04:42:19 04:49:49 35° 92° (E) 04:57:18 29.400- 29.500
DUCHIFAT 1 07 May 04:50:45 04:51:26 10° 330° (NNW) 04:52:06 145.980
ITUPSAT 1 07 May 04:53:11 04:55:12 12° 281° (W) 04:57:13 437.325
SWISSCUBE 07 May 05:01:36 05:02:13 10° 284° (WNW) 05:02:50 437.505
Cosmos 2491 07 May 05:03:19 05:09:01 19° 62° (ENE) 05:14:43 435.465 / 435.565
DANDE 07 May 05:03:49 05:08:20 21° 280° (W) 05:13:31 436.750
Gurwin Techsat 1B 07 May 05:09:02 05:14:17 60° 298° (WNW) 05:19:31 435.225
AIST 2 07 May 05:09:37 05:12:40 20° 236° (SW) 05:15:42 435.215
BUGSAT 1 07 May 05:11:51 05:12:59 11° 328° (NNW) 05:14:08 437.445
MOZHAYETS 4 07 May 05:16:32 05:20:46 36° 264° (W) 05:25:02
CUSAT 1 07 May 05:21:01 05:23:41 12° 294° (WNW) 05:26:27 437.405
CUBESAT XI-V 07 May 05:37:02 05:41:41 79° 68° (ENE) 05:46:22 437.345
STRAND 1 07 May 05:38:13 05:42:23 26° 45° (NE) 05:46:35 437.568
GONETS M04 07 May 05:45:04 05:51:48 23° 341° (NNW) 05:58:32
HORYU 2 07 May 05:45:09 05:48:55 26° 92° (E) 05:52:39 437.375
YUBILEINY 07 May 05:56:32 06:05:19 79° 72° (ENE) 06:14:04 435.215
ITAMSAT 1 07 May 06:05:05 06:10:06 50° 302° (WNW) 06:15:07 435.822/435.867
Oscar 19 07 May 06:15:40 06:19:23 20° 323° (NW) 06:23:05 437.125/150
KKS-1 07 May 06:18:38 06:19:58 11° 282° (WNW) 06:21:18 437.445
Cosmos 2499 07 May 06:19:03 06:23:57 19° 341° (NNW) 06:29:02 435.465 / 435.565
STARS 07 May 06:20:06 06:22:47 16° 276° (W) 06:25:30 437.465
BRITE-PL 07 May 06:20:16 06:23:56 17° 78° (ENE) 06:27:35 437.365/2234.400
